#timestamp,LO_Frequency,Hit 
1504040415.6,286047003.5,N
1504040435.4,286047003.4,N
1504040455.3,286047003.3,N
1504040475.1,286047006.0,N
1504040476.0,286047006.0,N
1504040495.8,286047003.5,N
1504040515.7,286047003.1,N
1504040535.5,286047003.7,N
1504040555.3,286047003.7,N
1504040575.2,286047004.9,N
1504040595.9,286047006.8,P
1504040615.7,286047005.8,N
1504040635.6,286047005.5,P
1504040655.4,286047007.3,P
1504040675.2,286047002.7,N
1504040695.1,286047000.7,N
1504040696.0,286047000.7,N
1504040715.8,286047000.0,N
1504040735.6,286047000.1,N
1504040755.5,286047000.6,N
1504040775.3,286047001.0,N
1504040795.1,286047000.9,N
1504040815.9,286046999.9,N
1504040835.7,286047002.5,N
1504040855.5,286046999.9,N
1504040875.3,286047000.3,N
1504040895.2,286047002.7,N
1504040915.0,286047002.2,N
1504040915.9,286047002.2,N
1504040935.7,286047005.0,N
1504040955.6,286047006.8,P
1504040975.4,286047007.1,N
1504040995.3,286047007.2,P
1504041015.1,286047006.0,N
1504041016.0,286047006.0,N
1504041035.8,286047004.9,N
1504041055.6,286047004.9,N
1504041075.5,286047005.3,P
1504041095.3,286046998.6,P
1504041115.2,286046998.7,N
1504041135.9,286047001.0,N
1504041155.7,286046998.5,N
1504041175.5,286046998.8,N
1504041195.4,286047000.0,N
1504041215.2,286046998.3,N
1504041235.0,286047000.3,N
1504041235.9,286047000.3,N
1504041255.8,286047003.8,N
1504041275.6,286047001.3,N
1504041295.4,286047001.5,N
1504041315.3,286047002.2,N
1504041335.1,286047000.2,N
1504041336.0,286047000.2,N
1504041355.8,286046999.8,N
1504041375.7,286047002.1,N
1504041395.5,286047001.5,N
1504041415.3,286047003.5,N
1504041435.2,286047003.3,N
1504041455.9,286047004.7,N
1504041475.7,286047005.8,N
1504041495.5,286047003.6,N
1504041515.4,286047005.3,N
1504041535.2,286047005.5,N
1504041555.0,286047005.2,N
1504041555.9,286047005.2,N
1504041575.8,286047005.2,N
1504041595.6,286047004.9,N
1504041615.4,286047007.5,P
1504041635.3,286047005.7,N
1504041655.1,286047005.7,N
1504041675.8,286047006.0,P
1504041695.7,286047000.8,N
1504041715.5,286046998.6,N
1504041735.3,286046998.2,N
1504041755.2,286047000.2,N
1504041775.9,286047000.1,N
1504041795.7,286046998.3,N
1504041815.6,286047000.8,N
1504041835.4,286047000.3,N
1504041855.2,286047000.4,N
1504041875.1,286047000.8,N
1504041876.0,286047000.8,N
1504041895.8,286046999.8,N
1504041915.6,286047000.7,N
1504041935.4,286047000.5,N
1504041955.3,286047000.7,N
1504041975.1,286047002.4,N
1504041995.8,286047002.6,N
1504042015.7,286047001.1,N
1504042035.5,286047001.1,N
1504042055.3,286046998.6,N
1504042075.2,286047000.4,N
1504042095.9,286047000.2,N
1504042115.7,286047002.8,N
1504042135.6,286046999.9,N
1504042155.4,286046999.8,N
1504042175.3,286047004.3,N
1504042195.1,286047001.8,N
1504042215.8,286047002.5,N
1504042235.7,286047002.1,N
1504042255.5,286047003.4,N
1504042275.3,286047005.8,P
1504042295.2,286047001.8,N
1504042315.0,286047002.1,N
1504042315.9,286047002.1,N
1504042335.7,286047002.5,N
1504042355.6,286047001.8,N
1504042375.4,286047002.1,N
1504042395.2,286047003.8,N
1504042415.1,286047003.4,N
1504042416.0,286047003.4,N
1504042435.8,286047003.5,N
1504042455.6,286047003.0,N
1504042475.5,286047003.4,N
1504042495.3,286047005.4,P
1504042515.1,286047001.6,N
1504042535.9,286047003.7,N
1504042555.7,286047002.0,N
1504042575.5,286047006.0,P
1504042595.4,286047002.1,N
1504042615.2,286047002.7,N
1504042635.0,286047002.2,N
1504042635.9,286047002.2,N
1504042655.8,286047002.2,N
1504042675.6,286047003.5,N
1504042695.4,286047001.3,N
1504042715.3,286047003.7,N
1504042735.1,286047003.2,N
1504042736.0,286047003.2,N
1504042755.8,286047004.0,P
1504042775.7,286047000.6,N
1504042795.5,286047000.9,N
1504042815.3,286047000.9,N
1504042835.2,286047002.0,N
1504042855.9,286046999.9,N
1504042875.7,286047002.1,N
1504042895.6,286047003.6,N
1504042915.4,286047004.2,P
1504042935.2,286047001.3,N
1504042955.1,286047003.9,P
1504042956.0,286047003.9,P
1504042975.8,286047000.0,N
1504042995.6,286046999.9,N
1504043015.5,286047000.1,N
1504043035.3,286047000.6,N
1504043055.1,286047002.2,N
1504043075.9,286047000.0,N
1504043095.7,286047002.6,N
1504043115.5,286047000.2,N
1504043135.4,286047001.4,N
1504043155.2,286047002.1,N
1504043175.0,286047001.3,N
1504043175.9,286047001.3,N
1504043195.8,286047001.6,N
1504043215.6,286047004.5,P
1504043235.4,286047003.9,N
1504043255.3,286047003.3,N
1504043275.1,286047002.9,N
1504043276.0,286047002.9,N
1504043295.8,286047002.9,N
1504043315.7,286047005.8,P
1504043335.5,286047002.5,N
1504043355.3,286046999.9,N
1504043375.2,286047000.4,N
1504043395.9,286047001.2,N
1504043415.7,286047000.5,N
1504043435.5,286047000.1,N
1504043455.4,286046998.2,N
1504043475.2,286047000.3,N
1504043495.0,286047000.5,N
1504043495.9,286047000.5,N
1504043515.8,286046998.6,N
1504043535.6,286046998.3,N
1504043555.4,286047000.7,N
1504043575.3,286047000.5,N
1504043595.1,286047000.2,N
1504043615.8,286047002.6,N
1504043635.7,286047002.1,N
1504043655.5,286046999.8,N
1504043675.3,286047000.1,N
1504043695.2,286047000.8,N
1504043715.9,286047000.5,N
1504043735.7,286047000.9,N
1504043755.6,286047002.4,N
1504043775.4,286047000.3,N
1504043795.2,286047000.4,N
1504043815.0,286047000.6,N
1504043815.9,286047000.6,N
1504043835.8,286047001.2,N
1504043855.6,286046999.8,N
1504043875.4,286047002.7,N
1504043895.3,286047000.3,N
1504043915.1,286047002.4,N
1504043935.8,286047001.8,N
1504043955.7,286047002.0,N
1504043975.5,286047004.4,P
1504043995.3,286047001.5,N
